F4MNZ-13 Weather Reports


Display with metric or nautical units.
time (UTC)temp
F
wind
direction
speed
MPH
gust
MPH
rain 1hr
in
rain 24hr
in
rain mn
in
humidity
%
barometer
mb
20260504130500 0 0.0 0.0 0.00 0.02 0.02 1015.0
20260504110500 63 337 2.0 10.0 0.00 0.01 0.01 71 1016.3
20260504100459 62 128 1.0 6.0 0.00 0.01 0.01 72 1016.7
20260504082002 56 44 3.0 3.0 0.01 0.01 0.01 88 1017.5
20260504081501 56 269 2.0 3.0 0.01 0.01 0.01 88 1017.6
20260504081001 55 165 1.0 1.0 0.01 0.01 0.01 91 1017.6
20260504080458 55 93 0.0 1.0 0.01 0.01 0.01 91 1017.7
20260504045500 0 0.0 0.0 0.00 0.00 0.00 1017.2
20260504045001 0 0.0 0.0 0.00 0.00 0.00 1017.0
20260504044000 0 0.0 0.0 0.00 0.00 0.00 1016.8
20260504042959 0 0.0 0.0 0.00 0.00 0.00 1016.6
20260504040959 0 0.0 0.0 0.00 0.00 0.00 1016.6
20260504040500 0 0.0 0.0 0.00 0.00 0.00 1016.6
20260504040000 49 122 1.0 2.0 0.00 0.00 0.00 93 1016.5
20260504035500 49 122 1.0 2.0 0.00 0.00 0.00 93 1016.4
20260504034959 49 122 0.0 2.0 0.00 0.00 0.00 93 1016.3
20260504034500 50 122 1.0 3.0 0.00 0.00 0.00 93 1016.3
20260504034000 50 215 0.0 5.0 0.00 0.00 0.00 94 1016.2
20260504033500 50 231 2.0 5.0 0.00 0.00 0.00 94 1016.2
20260504033002 0 0.0 0.0 0.00 0.00 0.00 1016.3
20260504032458 0 0.0 0.0 0.00 0.00 0.00 1016.4
20260504031959 0 0.0 0.0 0.00 0.00 0.00 1016.5
20260504030958 0 0.0 0.0 0.00 0.00 0.00 1016.4
20260504030459 0 0.0 0.0 0.00 0.00 0.00 1016.4
20260504025958 0 0.0 0.0 0.00 0.00 0.00 1016.4
20260504025459 0 0.0 0.0 0.00 0.00 0.00 1016.4
20260504024959 0 0.0 0.0 0.00 0.00 0.00 1016.4
20260504023458 0 0.0 0.0 0.00 0.00 0.00 1016.3
20260504022958 0 0.0 0.0 0.00 0.00 0.00 1016.3
20260504021959 50 199 0.0 3.0 0.00 0.00 0.00 93 1016.3
20260504021002 50 197 1.0 3.0 0.00 0.00 0.00 93 1016.5
20260504020458 50 213 2.0 2.0 0.00 0.00 0.00 93 1016.4
20260504015459 0 0.0 0.0 0.00 0.00 0.00 1016.4
20260504014959 0 0.0 0.0 0.00 0.00 0.00 1016.7
20260504014459 0 0.0 0.0 0.00 0.00 0.00 1016.7
20260504014000 51 173 1.0 2.0 0.00 0.00 0.00 93 1016.7
20260504013459 51 173 1.0 2.0 0.00 0.00 0.00 93 1016.7
20260504012959 51 173 0.0 3.0 0.00 0.00 0.00 93 1016.7
20260504012459 51 173 0.0 3.0 0.00 0.00 0.00 93 1016.6
20260504011958 51 161 0.0 2.0 0.00 0.00 0.00 93 1016.7
20260504011459 51 156 1.0 2.0 0.00 0.00 0.00 93 1016.7
20260504010958 51 156 1.0 2.0 0.00 0.00 0.00 92 1016.7
20260504010459 51 200 0.0 2.0 0.00 0.00 0.00 93 1016.7
20260504005959 51 200 0.0 2.0 0.00 0.00 0.00 93 1016.6
20260504005458 52 200 0.0 5.0 0.00 0.00 0.00 93 1016.7
20260504004958 52 200 1.0 5.0 0.00 0.00 0.00 93 1016.7
20260504004458 52 200 2.0 5.0 0.00 0.00 0.00 93 1016.7
20260504003458 52 212 2.0 5.0 0.00 0.00 0.00 94 1016.7
20260504003000 52 200 3.0 5.0 0.00 0.00 0.00 94 1016.8
20260504001958 51 236 2.0 3.0 0.00 0.00 0.00 93 1016.8
20260504001503 52 234 2.0 3.0 0.00 0.00 0.00 93 1016.7
20260504000958 52 229 2.0 3.0 0.00 0.00 0.00 94 1016.8
20260504000458 51 107 1.0 4.0 0.00 0.00 0.00 93 1016.9
20260504000000 51 69 1.0 4.0 0.00 0.00 0.00 92 1016.9
20260503235459 51 64 1.0 4.0 0.00 0.00 0.00 91 1017.0
20260503235001 52 38 3.0 5.0 0.00 0.00 0.00 91 1017.0
20260503234458 52 222 2.0 4.0 0.00 0.00 0.00 92 1016.8
20260503233959 52 215 3.0 4.0 0.00 0.00 0.00 92 1017.0
20260503233458 52 209 2.0 3.0 0.00 0.00 0.00 92 1017.0
20260503232500 52 228 0.0 2.0 0.00 0.00 0.00 93 1017.2
20260503231959 52 228 0.0 2.0 0.00 0.00 0.00 92 1017.3
20260503230002 53 228 1.0 2.0 0.00 0.00 0.00 92 1017.4
20260503225502 53 213 1.0 4.0 0.00 0.00 0.00 92 1017.4
20260503224959 53 204 1.0 4.0 0.00 0.00 0.00 92 1017.4
20260503224459 53 230 4.0 4.0 0.00 0.00 0.00 92 1017.5
20260503223959 53 229 3.0 3.0 0.00 0.00 0.00 93 1017.4
20260503223002 53 265 1.0 4.0 0.00 0.00 0.00 92 1017.4
20260503222001 53 133 3.0 4.0 0.00 0.00 0.00 91 1017.4
20260503221459 54 122 1.0 3.0 0.00 0.00 0.00 90 1017.6
20260503220505 54 126 1.0 2.0 0.00 0.00 0.00 90 1017.5
20260503220007 54 118 1.0 2.0 0.00 0.00 0.00 89 1017.5
20260503215501 55 142 1.0 2.0 0.00 0.00 0.00 89 1017.6
20260503215002 55 293 0.0 2.0 0.00 0.00 0.00 89 1017.6
20260503214504 55 293 1.0 2.0 0.00 0.00 0.00 88 1017.5
20260503214002 55 269 0.0 2.0 0.00 0.00 0.00 88 1017.5
20260503213501 55 269 1.0 2.0 0.00 0.00 0.00 88 1017.5
20260503213004 55 269 0.0 3.0 0.00 0.00 0.00 88 1017.6
20260503212501 55 213 2.0 6.0 0.00 0.00 0.00 88 1017.5
20260503212003 55 236 1.0 6.0 0.00 0.00 0.00 88 1017.4
20260503211003 55 244 3.0 5.0 0.00 0.00 0.00 89 1017.3
20260503210003 55 256 3.0 9.0 0.00 0.00 0.00 89 1017.3
20260503205000 56 34 1.0 3.0 0.00 0.00 0.00 87 1017.3
20260503204501 56 306 1.0 3.0 0.00 0.00 0.00 87 1017.2
20260503204001 57 240 1.0 6.0 0.00 0.00 0.00 87 1017.1
20260503203500 57 230 3.0 8.0 0.00 0.00 0.00 88 1017.1
20260503203000 57 238 3.0 8.0 0.00 0.00 0.00 87 1017.1
20260503202500 57 296 2.0 6.0 0.00 0.00 0.00 86 1017.0
20260503201500 57 250 2.0 5.0 0.00 0.00 0.00 83 1016.9
20260503201001 57 194 2.0 5.0 0.00 0.00 0.00 83 1016.9
20260503200004 0 0.0 0.0 0.00 0.00 0.00 1016.8
20260503195501 0 0.0 0.0 0.00 0.00 0.00 1016.7
20260503195000 0 0.0 0.0 0.00 0.00 0.00 1016.7
20260503194500 57 100 0.0 2.0 0.00 0.00 0.00 85 1016.6
20260503193502 57 100 0.0 1.0 0.00 0.00 0.00 85 1016.6
20260503193000 0 100 1.0 1.0 0.00 0.00 0.00 1016.3
20260503192500 0 0.0 0.0 0.00 0.00 0.00 1016.2
20260503191501 0 0.0 0.0 0.00 0.00 0.00 1016.2
20260503190506 0 0.0 0.0 0.00 0.00 0.00 1016.0
20260503190003 0 0.0 0.0 0.00 0.00 0.00 1016.1
20260503185502 0 0.0 0.0 0.00 0.00 0.00 1016.0
20260503185001 0 0.0 0.0 0.00 0.00 0.00 1015.9
20260503184501 0 0.0 0.0 0.00 0.00 0.00 1015.8
20260503184000 0 0.0 0.0 0.00 0.00 0.00 1015.8
20260503183505 0 0.0 0.0 0.00 0.00 0.00 1015.7
20260503182504 0 0.0 0.0 0.00 0.00 0.00 1015.5
20260503182000 60 208 0.0 2.0 0.00 0.00 0.00 79 1015.4
20260503181500 60 208 0.0 2.0 0.00 0.00 0.00 79 1015.4
20260503181000 60 208 1.0 2.0 0.00 0.00 0.00 79 1015.3
20260503180501 60 36 0.0 3.0 0.00 0.00 0.00 79 1015.3
20260503180000 60 49 3.0 3.0 0.00 0.00 0.00 79 1015.2
20260503175000 61 40 1.0 4.0 0.00 0.00 0.00 78 1015.3
20260503174500 61 13 1.0 4.0 0.00 0.00 0.00 78 1015.3
20260503174000 61 82 1.0 4.0 0.00 0.00 0.00 77 1015.4
20260503173502 61 324 0.0 2.0 0.00 0.00 0.00 79 1015.4
20260503173000 61 336 1.0 3.0 0.00 0.00 0.00 79 1015.5
20260503172501 61 44 1.0 3.0 0.00 0.00 0.00 78 1015.6
20260503172000 61 67 1.0 5.0 0.00 0.00 0.00 79 1015.6
20260503171501 62 56 4.0 4.0 0.00 0.00 0.00 77 1015.6
20260503171001 62 56 0.0 3.0 0.00 0.00 0.00 76 1015.7
20260503170501 62 69 1.0 4.0 0.00 0.00 0.00 76 1015.8
20260503151000 63 113 1.0 2.0 0.00 0.00 0.00 80 1016.7
20260503150501 63 215 0.0 5.0 0.00 0.00 0.00 78 1016.7